Litchfield, MN

6:04 AM CST on January 19, 2018 (GMT -0600)
Litchfield Municipal

Weather History for KLJF - September, 2012

Change the Weather History Date:

Sunday, September 9, 2012

  Actual Average Record
Temperature  
Mean Temperature 62 °F -  
Max Temperature 77 °F 75 °F 93 °F (1978)
Min Temperature 48 °F 52 °F 35 °F (2002)
Degree Days  
Heating Degree Days 2    
Growing Degree Days 12 (Base 50)    
Moisture  
Dew Point 46 °F    
Average Humidity 65    
Maximum Humidity 100    
Minimum Humidity 29    
Precipitation  
Precipitation 0.00 in - - ()
Sea Level Pressure  
Sea Level Pressure 30.15 in    
Wind  
Wind Speed 4 mph (NW)    
Max Wind Speed 7 mph    
Max Gust Speed -    
Visibility 10 miles    
Events      
Averages and records for this station are not official NWS values.
T = Trace of Precipitation, MM = Missing Value Source: NWS Daily Summary

Daily Weather History Graph

Daily Weather History Graph

Search for Another Location

Airport or City:

Trip Planner

Search our weather history database for the weather conditions in past years. The results will help you decide how hot, cold, wet, or windy it might be!

Date:

Astronomy

Sep. 09, 2012 Rise Set
Actual Time 6:50 AM CDT 7:39 PM CDT
Civil Twilight 6:20 AM CDT 8:09 PM CDT
Nautical Twilight 5:44 AM CDT 8:44 PM CDT
Astronomical Twilight 5:07 AM CDT 9:21 PM CDT
Moon 12:07 AM CDT (9/9) 3:37 PM CDT (9/9)
Length of Visible Light 13h 48m
Length of Day
12h 49m
Last Quarter, 39% of the Moon is Illuminated
Sep 9
Last Quarter
Sep 15
New
Sep 22
First Quarter
Sep 29
Full
Oct 8
Last Quarter

Hourly Weather History & Observations

Time (CDT) Temp. Dew Point Humidity Pressure Visibility Wind Dir Wind Speed Gust Speed Precip Events Conditions
12:13 AM 53.6 °F 46.4 °F 77% 30.09 in 10.0 mi NNW 5.8 mph - N/A   Scattered Clouds
12:33 AM 53.6 °F 48.2 °F 82% 30.10 in 10.0 mi NW 5.8 mph - N/A   Clear
12:53 AM 53.6 °F 48.2 °F 82% 30.11 in 10.0 mi NW 5.8 mph - N/A   Clear
1:13 AM 51.8 °F 48.2 °F 88% 30.10 in 10.0 mi NW 5.8 mph - N/A   Scattered Clouds
1:33 AM 51.8 °F 48.2 °F 88% 30.11 in 10.0 mi NW 5.8 mph - N/A   Scattered Clouds
1:53 AM 51.8 °F 48.2 °F 88% 30.11 in 10.0 mi NW 5.8 mph - N/A   Scattered Clouds
2:13 AM 51.8 °F 48.2 °F 88% 30.11 in 10.0 mi NW 5.8 mph - N/A   Scattered Clouds
2:33 AM 50.0 °F 46.4 °F 87% 30.12 in 10.0 mi NNW 5.8 mph - N/A   Scattered Clouds
2:53 AM 50.0 °F 48.2 °F 94% 30.12 in 10.0 mi NNW 6.9 mph - N/A   Clear
3:13 AM 50.0 °F 48.2 °F 94% 30.13 in 10.0 mi NW 4.6 mph - N/A   Clear
3:33 AM 50.0 °F 48.2 °F 94% 30.13 in 10.0 mi NW 6.9 mph - N/A   Clear
3:53 AM 50.0 °F 48.2 °F 94% 30.14 in 10.0 mi NW 5.8 mph - N/A   Scattered Clouds
4:13 AM 50.0 °F 48.2 °F 94% 30.14 in 10.0 mi NW 5.8 mph - N/A   Scattered Clouds
4:33 AM 48.2 °F 48.2 °F 100% 30.15 in 10.0 mi NW 5.8 mph - N/A   Scattered Clouds
4:53 AM 48.2 °F 48.2 °F 100% 30.15 in 10.0 mi NNW 6.9 mph - N/A   Scattered Clouds
5:13 AM 48.2 °F 48.2 °F 100% 30.16 in 10.0 mi NW 5.8 mph - N/A   Scattered Clouds
5:33 AM 48.2 °F 48.2 °F 100% 30.16 in 10.0 mi NW 4.6 mph - N/A   Scattered Clouds
5:53 AM 48.2 °F 48.2 °F 100% 30.17 in 10.0 mi NW 5.8 mph - N/A   Scattered Clouds
6:13 AM 48.2 °F 48.2 °F 100% 30.18 in 10.0 mi NW 5.8 mph - N/A   Scattered Clouds
6:33 AM 48.2 °F 46.4 °F 93% 30.19 in 10.0 mi NW 4.6 mph - N/A   Scattered Clouds
6:53 AM 48.2 °F 46.4 °F 93% 30.19 in 10.0 mi WNW 3.5 mph - N/A   Scattered Clouds
7:33 AM 48.2 °F 46.4 °F 93% 30.20 in 10.0 mi NNW 3.5 mph - N/A   Clear
7:53 AM 50.0 °F 48.2 °F 94% 30.20 in 10.0 mi NNW 3.5 mph - N/A   Clear
8:13 AM 51.8 °F 51.8 °F 100% 30.21 in 10.0 mi NNW 4.6 mph - N/A   Clear
8:33 AM 55.4 °F 51.8 °F 88% 30.21 in 10.0 mi North 5.8 mph - N/A   Clear
8:53 AM 55.4 °F 51.8 °F 88% 30.21 in 10.0 mi North 4.6 mph - N/A   Clear
9:13 AM 57.2 °F 51.8 °F 82% 30.22 in 10.0 mi North 4.6 mph - N/A   Clear
9:33 AM 57.2 °F 51.8 °F 82% 30.22 in 10.0 mi North 3.5 mph - N/A   Clear
9:53 AM 62.6 °F 55.4 °F 77% 30.22 in 10.0 mi NNE 3.5 mph - N/A   Clear
10:13 AM 64.4 °F 53.6 °F 68% 30.22 in 10.0 mi NE 3.5 mph - N/A   Clear
10:33 AM 66.2 °F 60.8 °F 83% 30.22 in 10.0 mi Calm Calm - N/A   Clear
11:13 AM 66.2 °F 50.0 °F 56% 30.22 in 10.0 mi West 3.5 mph - N/A   Scattered Clouds
11:33 AM 69.8 °F 46.4 °F 43% 30.22 in 10.0 mi WNW 4.6 mph - N/A   Scattered Clouds
11:53 AM 69.8 °F 46.4 °F 43% 30.22 in 10.0 mi West 5.8 mph - N/A   Clear
12:13 PM 69.8 °F 46.4 °F 43% 30.22 in 10.0 mi Calm Calm - N/A   Clear
12:33 PM 71.6 °F 44.6 °F 38% 30.21 in 10.0 mi WNW 5.8 mph - N/A   Clear
12:53 PM 69.8 °F 44.6 °F 40% 30.20 in 10.0 mi Calm Calm - N/A   Clear
1:13 PM 71.6 °F 44.6 °F 38% 30.19 in 10.0 mi West 4.6 mph - N/A   Clear
1:33 PM 71.6 °F 44.6 °F 38% 30.19 in 10.0 mi WNW 3.5 mph - N/A   Clear
1:53 PM 73.4 °F 44.6 °F 36% 30.18 in 10.0 mi WSW 4.6 mph - N/A   Clear
2:13 PM 73.4 °F 44.6 °F 36% 30.17 in 10.0 mi NNE 3.5 mph - N/A   Clear
2:33 PM 73.4 °F 44.6 °F 36% 30.17 in 10.0 mi NNW 3.5 mph - N/A   Clear
2:53 PM 75.2 °F 44.6 °F 34% 30.16 in 10.0 mi Calm Calm - N/A   Clear
3:13 PM 75.2 °F 44.6 °F 34% 30.16 in 10.0 mi North 3.5 mph - N/A   Clear
3:33 PM 75.2 °F 44.6 °F 34% 30.15 in 10.0 mi Calm Calm - N/A   Clear
3:53 PM 75.2 °F 44.6 °F 34% 30.14 in 10.0 mi Calm Calm - N/A   Clear
4:13 PM 77.0 °F 42.8 °F 29% 30.14 in 10.0 mi Calm Calm - N/A   Clear
4:33 PM 75.2 °F 42.8 °F 31% 30.13 in 10.0 mi Calm Calm - N/A   Clear
4:53 PM 77.0 °F 42.8 °F 29% 30.13 in 10.0 mi SW 4.6 mph - N/A   Clear
5:13 PM 77.0 °F 42.8 °F 29% 30.12 in 10.0 mi South 3.5 mph - N/A   Clear
5:33 PM 77.0 °F 44.6 °F 32% 30.12 in 10.0 mi Calm Calm - N/A   Clear
5:53 PM 77.0 °F 42.8 °F 29% 30.11 in 10.0 mi Calm Calm - N/A   Clear
6:13 PM 75.2 °F 42.8 °F 31% 30.11 in 10.0 mi Calm Calm - N/A   Clear
6:33 PM 75.2 °F 42.8 °F 31% 30.10 in 10.0 mi Calm Calm - N/A   Clear
6:53 PM 73.4 °F 44.6 °F 36% 30.10 in 10.0 mi Calm Calm - N/A   Clear
7:13 PM 69.8 °F 42.8 °F 38% 30.10 in 10.0 mi Calm Calm - N/A   Clear
7:33 PM 66.2 °F 41.0 °F 40% 30.10 in 10.0 mi Calm Calm - N/A   Clear
7:53 PM 62.6 °F 41.0 °F 45% 30.09 in 10.0 mi Calm Calm - N/A   Clear
8:13 PM 60.8 °F 37.4 °F 42% 30.10 in 10.0 mi SSE 3.5 mph - N/A   Scattered Clouds
8:33 PM 57.2 °F 39.2 °F 51% 30.10 in 10.0 mi SSE 3.5 mph - N/A   Scattered Clouds
8:53 PM 55.4 °F 39.2 °F 54% 30.09 in 10.0 mi SSE 4.6 mph - N/A   Clear
9:13 PM 57.2 °F 44.6 °F 63% 30.09 in 10.0 mi SSE 3.5 mph - N/A   Clear
9:33 PM 59.0 °F 46.4 °F 63% 30.09 in 10.0 mi SSE 3.5 mph - N/A   Scattered Clouds
9:53 PM 57.2 °F 44.6 °F 63% 30.09 in 10.0 mi Calm Calm - N/A   Scattered Clouds
10:13 PM 55.4 °F 42.8 °F 63% 30.09 in 10.0 mi SSE 3.5 mph - N/A   Clear
10:33 PM 53.6 °F 42.8 °F 67% 30.09 in 10.0 mi Calm Calm - N/A   Clear
10:53 PM 53.6 °F 44.6 °F 72% 30.09 in 10.0 mi SE 4.6 mph - N/A   Clear
11:13 PM 55.4 °F 46.4 °F 72% 30.09 in 10.0 mi SE 4.6 mph - N/A   Scattered Clouds
11:33 PM 53.6 °F 44.6 °F 72% 30.09 in 10.0 mi SE 4.6 mph - N/A   Scattered Clouds
11:53 PM 53.6 °F 46.4 °F 77% 30.09 in 10.0 mi SSE 4.6 mph - N/A   Clear